Tracking 30922 objects as of 2-Jul-2025
HD Live streaming from Space Station
objects crossing your sky now

COSMOS 532

Track COSMOS 532 now!
10-day predictions
COSMOS 532 is classified as:


NORAD ID: 6267
Int'l Code: 1972-087E
Perigee: 1,306.0 km
Apogee: 1,474.3 km
Inclination: 74.0 °
Period: 113.4 minutes
Semi major axis: 7761 km
RCS: 0.7139 m2 (medium)
Launch date: November 1, 1972
Source: Commonwealth of Independent States (former USSR) (CIS)
Launch site: PLESETSK MISSILE AND SPACE COMPLEX (PKMTR)
Your satellite tracking list
Your tracking list is empty




NASA's NSSDC Master Catalog

Two Line Element Set (TLE):
1 06267U 72087E   25182.82372384 -.00000018  00000-0 -57246-5 0  9990
2 06267  74.0327 219.7136 0108391 334.6317 200.5647 12.69733440440825
Source of the keplerian elements: AFSPC